Lapeer, MI

11:00 PM EDT on July 26, 2017 (GMT -0400)
Lapeer

Weather History for KD95 - November, 2012

Change the Weather History Date:

Monday, November 5, 2012

  Actual Average (KFNT) Record (KFNT)
Temperature  
Mean Temperature 34 °F -  
Max Temperature 39 °F 49 °F 76 °F (1978)
Min Temperature 29 °F 34 °F 14 °F (1951)
Degree Days  
Heating Degree Days 31    
Moisture  
Dew Point 32 °F    
Average Humidity 92    
Maximum Humidity 100    
Minimum Humidity 70    
Precipitation  
Precipitation 0.00 in - - ()
Sea Level Pressure  
Sea Level Pressure 30.18 in    
Wind  
Wind Speed 2 mph ()    
Max Wind Speed 9 mph    
Max Gust Speed -    
Visibility 9.9 miles    
Events Rain    
Averages and records for this station are not official NWS values.
T = Trace of Precipitation, MM = Missing Value Source: Averaged Metar Reports

Daily Weather History Graph

Daily Weather History Graph

Search for Another Location

Airport or City:

Trip Planner

Search our weather history database for the weather conditions in past years. The results will help you decide how hot, cold, wet, or windy it might be!

Date:

Astronomy

Nov. 05, 2012 Rise Set
Actual Time 7:13 AM EST 5:19 PM EST
Civil Twilight 6:43 AM EST 5:49 PM EST
Nautical Twilight 6:09 AM EST 6:22 PM EST
Astronomical Twilight 5:36 AM EST 6:56 PM EST
Moon 10:56 PM EST (11/5) 12:32 PM EST (11/5)
Length of Visible Light 11h 05m
Length of Day
10h 05m
Waning Gibbous, 63% of the Moon is Illuminated
Nov 5
Waning Gibbous
Nov 6
Last Quarter
Nov 13
New
Nov 20
First Quarter
Nov 28
Full

Hourly Weather History & Observations

Time (EST) Temp. Windchill Dew Point Humidity Pressure Visibility Wind Dir Wind Speed Gust Speed Precip Events Conditions
12:13 AM 29.3 °F - 29.3 °F 100% 30.17 in 10.0 mi Calm Calm - N/A   Overcast
12:33 AM 29.7 °F 26.1 °F 29.7 °F 100% 30.17 in 10.0 mi SSW 3.5 mph - N/A   Overcast
12:53 AM 30.2 °F - 30.2 °F 100% 30.17 in 10.0 mi Calm Calm - N/A   Overcast
1:13 AM 30.6 °F - 30.6 °F 100% 30.17 in 10.0 mi Calm Calm - N/A   Overcast
1:33 AM 30.7 °F - 30.7 °F 100% 30.17 in 10.0 mi Calm Calm - N/A   Overcast
1:53 AM 30.7 °F - 30.7 °F 100% 30.17 in 10.0 mi Calm Calm - N/A   Overcast
2:13 AM 31.1 °F - 31.1 °F 100% 30.17 in 10.0 mi Calm Calm - N/A   Overcast
2:33 AM 31.3 °F - 31.3 °F 100% 30.17 in 10.0 mi Calm Calm - N/A   Overcast
2:53 AM 31.8 °F - 31.8 °F 100% 30.18 in 10.0 mi Calm Calm - N/A   Overcast
3:13 AM 32.0 °F - 32.0 °F 100% 30.18 in 10.0 mi Calm Calm - N/A   Overcast
3:33 AM 32.0 °F 27.5 °F 32.0 °F 100% 30.18 in 10.0 mi West 4.6 mph - N/A   Overcast
3:53 AM 32.0 °F 28.7 °F 32.0 °F 100% 30.18 in 10.0 mi NW 3.5 mph - N/A   Overcast
4:13 AM 32.0 °F - 32.0 °F 100% 30.18 in 10.0 mi Calm Calm - N/A   Overcast
4:33 AM 32.0 °F - 32.0 °F 100% 30.18 in 10.0 mi Calm Calm - N/A   Overcast
5:13 AM 31.8 °F - 31.8 °F 100% 30.18 in 10.0 mi Calm Calm - N/A   Overcast
5:33 AM 31.8 °F - 31.8 °F 100% 30.18 in 10.0 mi Calm Calm - N/A   Overcast
5:53 AM 32.0 °F - 32.0 °F 100% 30.18 in 10.0 mi Calm Calm - N/A   Overcast
6:14 AM 31.8 °F - 31.8 °F 100% 30.18 in 10.0 mi Calm Calm - N/A   Overcast
6:33 AM 32.0 °F - 32.0 °F 100% 30.19 in 10.0 mi Calm Calm - N/A   Overcast
6:53 AM 31.8 °F - 31.8 °F 100% 30.19 in 10.0 mi Calm Calm - N/A   Overcast
7:13 AM 30.6 °F 27.1 °F 30.6 °F 100% 30.19 in 10.0 mi West 3.5 mph - N/A   Scattered Clouds
7:33 AM 30.7 °F - 30.7 °F 100% 30.19 in 10.0 mi Calm Calm - N/A   Mostly Cloudy
7:53 AM 30.9 °F - 30.9 °F 100% 30.19 in 10.0 mi Calm Calm - N/A   Overcast
8:13 AM 31.6 °F - 31.6 °F 100% 30.20 in 10.0 mi Calm Calm - N/A   Overcast
8:33 AM 32.0 °F - 32.0 °F 100% 30.20 in 10.0 mi Calm Calm - N/A   Overcast
8:53 AM 33.1 °F 30.0 °F 33.1 °F 100% 30.20 in 10.0 mi WNW 3.5 mph - N/A   Overcast
9:13 AM 34.2 °F 29.0 °F 34.0 °F 99% 30.20 in 10.0 mi NW 5.8 mph - N/A   Overcast
9:33 AM 34.5 °F 30.4 °F 34.3 °F 99% 30.20 in 10.0 mi NNW 4.6 mph - N/A   Overcast
9:53 AM 35.4 °F 31.5 °F 34.0 °F 94% 30.20 in 10.0 mi North 4.6 mph - N/A   Overcast
10:13 AM 36.0 °F 33.3 °F 34.0 °F 93% 30.20 in 10.0 mi North 3.5 mph - N/A   Overcast
10:33 AM 36.5 °F 31.8 °F 34.5 °F 93% 30.21 in 10.0 mi North 5.8 mph - N/A   Overcast
10:53 AM 36.7 °F 32.0 °F 34.9 °F 93% 30.21 in 10.0 mi North 5.8 mph - N/A   Overcast
11:13 AM 37.2 °F - 35.1 °F 92% 30.20 in 10.0 mi Calm Calm - N/A   Overcast
11:33 AM 35.2 °F 29.5 °F 34.0 °F 95% 30.21 in 5.0 mi NNE 6.9 mph - N/A Rain Light Rain
11:53 AM 36.7 °F 32.9 °F 36.7 °F 100% 30.20 in 10.0 mi NE 4.6 mph - N/A   Overcast
12:13 PM 37.4 °F 32.8 °F 36.3 °F 96% 30.20 in 10.0 mi NNE 5.8 mph - N/A   Overcast
12:33 PM 38.3 °F 35.9 °F 34.5 °F 86% 30.19 in 10.0 mi North 3.5 mph - N/A   Overcast
12:53 PM 38.3 °F 32.5 °F 32.0 °F 78% 30.19 in 10.0 mi NNE 8.1 mph - N/A   Overcast
1:13 PM 39.2 °F 35.0 °F 30.7 °F 72% 30.18 in 10.0 mi NE 5.8 mph - N/A   Overcast
1:33 PM 39.4 °F 36.1 °F 30.2 °F 70% 30.18 in 10.0 mi NNE 4.6 mph - N/A   Overcast
1:53 PM 38.8 °F 32.6 °F 31.5 °F 75% 30.18 in 10.0 mi NNE 9.2 mph - N/A   Overcast
2:13 PM 38.1 °F 32.3 °F 31.3 °F 76% 30.18 in 10.0 mi NNE 8.1 mph - N/A   Overcast
2:33 PM 37.8 °F 32.5 °F 30.2 °F 74% 30.17 in 10.0 mi NE 6.9 mph - N/A   Overcast
2:53 PM 37.8 °F 32.5 °F 29.8 °F 73% 30.17 in 10.0 mi NE 6.9 mph - N/A   Overcast
3:13 PM 37.6 °F 32.3 °F 30.2 °F 75% 30.17 in 10.0 mi ENE 6.9 mph - N/A   Overcast
3:33 PM 37.6 °F 33.1 °F 30.2 °F 75% 30.17 in 10.0 mi NE 5.8 mph - N/A   Overcast
3:53 PM 37.4 °F 33.8 °F 30.6 °F 76% 30.17 in 10.0 mi East 4.6 mph - N/A   Overcast
4:13 PM 37.4 °F 34.9 °F 31.3 °F 79% 30.17 in 10.0 mi East 3.5 mph - N/A   Overcast
4:33 PM 37.0 °F 33.3 °F 31.1 °F 79% 30.17 in 10.0 mi ENE 4.6 mph - N/A   Overcast
4:53 PM 36.9 °F - 31.1 °F 80% 30.17 in 10.0 mi Calm Calm - N/A   Overcast
5:13 PM 36.7 °F - 30.7 °F 79% 30.17 in 10.0 mi Calm Calm - N/A   Overcast
5:33 PM 36.5 °F - 30.7 °F 80% 30.17 in 10.0 mi Calm Calm - N/A   Overcast
5:53 PM 36.5 °F - 30.9 °F 80% 30.18 in 10.0 mi Calm Calm - N/A   Overcast
6:13 PM 36.1 °F - 31.3 °F 83% 30.18 in 10.0 mi Calm Calm - N/A   Overcast
6:33 PM 36.0 °F - 31.6 °F 84% 30.18 in 10.0 mi Calm Calm - N/A   Overcast
6:53 PM 36.1 °F - 30.9 °F 81% 30.18 in 10.0 mi Calm Calm - N/A   Overcast
7:13 PM 35.8 °F - 30.9 °F 82% 30.19 in 10.0 mi Calm Calm - N/A   Overcast
7:33 PM 35.6 °F - 30.9 °F 83% 30.18 in 10.0 mi Calm Calm - N/A   Overcast
7:53 PM 35.6 °F - 30.9 °F 83% 30.18 in 10.0 mi Calm Calm - N/A   Overcast
8:13 PM 35.6 °F - 31.1 °F 84% 30.18 in 10.0 mi Calm Calm - N/A   Overcast
8:33 PM 35.2 °F - 31.5 °F 86% 30.18 in 10.0 mi Calm Calm - N/A   Overcast
8:53 PM 34.2 °F - 30.7 °F 87% 30.17 in 10.0 mi Calm Calm - N/A   Scattered Clouds
9:13 PM 33.1 °F - 30.0 °F 89% 30.17 in 10.0 mi Calm Calm - N/A   Clear
9:33 PM 31.3 °F - 30.7 °F 98% 30.17 in 10.0 mi Calm Calm - N/A   Clear
9:53 PM 31.6 °F - 31.6 °F 100% 30.18 in 10.0 mi Calm Calm - N/A   Scattered Clouds
10:13 PM 29.8 °F - 29.8 °F 100% 30.18 in 10.0 mi Calm Calm - N/A   Overcast
10:33 PM 30.6 °F - 30.6 °F 100% 30.17 in 10.0 mi Calm Calm - N/A   Overcast
10:53 PM 30.6 °F - 30.6 °F 100% 30.17 in 10.0 mi Calm Calm - N/A   Overcast
11:13 PM 31.1 °F - 31.1 °F 100% 30.17 in 10.0 mi Calm Calm - N/A   Overcast
11:33 PM 31.1 °F - 31.1 °F 100% 30.16 in 10.0 mi Calm Calm - N/A   Overcast
11:53 PM 31.1 °F - 31.1 °F 100% 30.16 in 10.0 mi Calm Calm - N/A   Overcast